Location: Alpha Ridge Park
(39.3209°N, 76.9128°W)
Time: 22:36:24
(UTC-04:00)

Transit 2A - Pass Details

Date: 31 May 2019
Orbit: 593 x 966 km, 66.7° (Epoch: 16 June)

Event Time Altitude Azimuth Distance (km) Brightness Sun altitude
Rises 08:46:52 0° 272° (W) 3,631 9.0 33.0°
Reaches altitude 10° 08:51:17 10° 300° (WNW) 2,707 8.5 33.8°
Maximum altitude 08:53:51 12° 324° (NW) 2,527 8.5 34.3°
Drops below altitude 10° 08:56:25 10° 348° (NNW) 2,699 8.8 34.8°
Sets 09:00:50 0° 17° (NNE) 3,610 9.7 35.7°
